FW6905 Weather Reports


time (UTC)temp
F
wind
direction
speed
knots
gust
knots
rain 1hr
in
rain 24hr
in
rain mn
in
humidity
%
barometer
mb
20260502232006 48 78 0.0 2.6 0.00 0.00 0.00 65 1022.8
20260502231505 48 71 1.7 2.6 0.00 0.00 0.00 66 1022.8
20260502231005 48 58 1.7 2.6 0.00 0.00 0.00 65 1023.8
20260502230006 48 90 0.0 1.7 0.00 0.00 0.00 64 1023.8
20260502225505 48 90 0.0 1.7 0.00 0.00 0.00 64 1022.8
20260502225006 49 86 0.0 1.7 0.00 0.00 0.00 64 1022.8
20260502224506 49 76 0.9 1.7 0.00 0.00 0.00 63 1022.8
20260502224006 49 0 0.0 0.0 0.00 0.00 0.00 64 1022.8
20260502223505 49 42 0.0 1.7 0.00 0.00 0.00 65 1022.8
20260502223006 49 40 0.0 1.7 0.00 0.00 0.00 63 1022.8
20260502222505 49 54 0.9 1.7 0.00 0.00 0.00 62 1022.8
20260502222006 49 112 0.0 1.7 0.00 0.00 0.00 62 1022.8
20260502221506 49 146 0.0 1.7 0.00 0.00 0.00 61 1022.8
20260502215506 50 68 0.0 1.7 0.00 0.00 0.00 60 1023.8
20260502215005 50 71 1.7 1.7 0.00 0.00 0.00 61 1023.8
20260502214505 50 203 0.0 1.7 0.00 0.00 0.00 60 1023.8
20260502213505 50 68 0.0 1.7 0.00 0.00 0.00 61 1022.8
20260502212005 51 93 0.0 1.7 0.00 0.00 0.00 58 1022.8
20260502211506 51 48 0.9 1.7 0.00 0.00 0.00 59 1022.8
20260502211005 51 36 0.0 1.7 0.00 0.00 0.00 57 1022.8
20260502210505 51 117 0.0 1.7 0.00 0.00 0.00 57 1022.8
20260502210006 52 173 0.9 1.7 0.00 0.00 0.00 58 1022.8
20260502205505 52 297 0.9 1.7 0.00 0.00 0.00 56 1023.8
20260502205006 52 62 0.9 1.7 0.00 0.00 0.00 55 1023.8
20260502204505 52 67 0.0 1.7 0.00 0.00 0.00 55 1023.8
20260502203505 53 0 0.0 0.0 0.00 0.00 0.00 54 1023.8
20260502203006 53 0 0.0 0.0 0.00 0.00 0.00 54 1023.8
20260502202505 53 45 0.0 0.9 0.00 0.00 0.00 53 1023.8
20260502202005 53 45 0.0 0.9 0.00 0.00 0.00 53 1023.8
20260502201505 54 0 0.0 0.0 0.00 0.00 0.00 52 1023.8
20260502201005 54 0 0.0 0.0 0.00 0.00 0.00 52 1023.8
20260502200506 54 0 0.0 0.0 0.00 0.00 0.00 50 1023.8
20260502200005 54 1 0.0 1.7 0.00 0.00 0.00 50 1023.8
20260502195506 55 1 0.0 1.7 0.00 0.00 0.00 50 1022.8
20260502195005 55 0 0.0 0.0 0.00 0.00 0.00 50 1022.8
20260502194506 55 158 0.0 1.7 0.00 0.00 0.00 47 1022.8
20260502194005 56 159 0.0 1.7 0.00 0.00 0.00 48 1022.8
20260502193506 56 168 0.0 1.7 0.00 0.00 0.00 46 1022.8
20260502193005 56 181 0.0 1.7 0.00 0.00 0.00 44 1022.8
20260502192506 57 181 0.0 1.7 0.00 0.00 0.00 44 1022.8
20260502192005 57 68 0.0 0.9 0.00 0.00 0.00 44 1022.8
20260502191506 58 68 0.0 1.7 0.00 0.00 0.00 41 1022.8
20260502190505 58 54 0.0 1.7 0.00 0.00 0.00 40 1021.8
20260502190006 59 49 0.9 1.7 0.00 0.00 0.00 39 1021.8
20260502185505 59 0 0.0 0.0 0.00 0.00 0.00 38 1021.8
20260502185006 60 308 0.0 1.7 0.00 0.00 0.00 37 1021.8
20260502184505 60 308 0.0 1.7 0.00 0.00 0.00 36 1021.8
20260502184006 61 299 0.0 1.7 0.00 0.00 0.00 35 1021.8
20260502183506 61 104 0.0 1.7 0.00 0.00 0.00 34 1021.8
20260502183006 62 111 0.0 1.7 0.00 0.00 0.00 33 1021.8
20260502182505 62 0 0.0 0.0 0.00 0.00 0.00 33 1021.8
20260502182005 63 0 0.0 0.0 0.00 0.00 0.00 32 1021.8
20260502181505 64 253 0.0 1.7 0.00 0.00 0.00 32 1021.8
20260502181005 64 266 0.0 2.6 0.00 0.00 0.00 31 1021.8
20260502180505 65 245 1.7 2.6 0.00 0.00 0.00 30 1021.8
20260502170506 71 251 1.7 6.1 0.00 0.00 0.00 23 1020.8
20260502164005 72 209 2.6 10.4 0.00 0.00 0.00 21 1021.8
20260502163005 73 229 5.2 7.8 0.00 0.00 0.00 22 1021.8
20260502162006 73 217 3.5 5.2 0.00 0.00 0.00 22 1021.8
20260502161505 73 273 1.7 9.6 0.00 0.00 0.00 23 1021.8
20260502161005 73 279 2.6 9.6 0.00 0.00 0.00 22 1021.8
20260502160505 74 242 1.7 7.8 0.00 0.00 0.00 22 1021.8
20260502151505 75 228 3.5 7.8 0.00 0.00 0.00 21 1021.8
20260502151005 75 212 5.2 7.8 0.00 0.00 0.00 21 1022.8
20260502150506 75 211 5.2 10.4 0.00 0.00 0.00 21 1022.8
20260502130505 76 240 6.1 11.3 0.00 0.00 0.00 19 1023.8
20260502123505 77 247 5.2 9.6 0.00 0.00 0.00 19 1023.8
20260502123006 76 241 2.6 8.7 0.00 0.00 0.00 20 1023.8
20260502122505 76 238 4.3 8.7 0.00 0.00 0.00 20 1023.8
20260502122006 76 232 4.3 11.3 0.00 0.00 0.00 19 1023.8
20260502120505 76 233 7.8 12.2 0.00 0.00 0.00 19 1023.8
20260502115505 77 224 6.1 9.6 0.00 0.00 0.00 19 1023.8
20260502115005 77 240 5.2 7.8 0.00 0.00 0.00 20 1023.8
20260502114005 76 258 5.2 11.3 0.00 0.00 0.00 20 1023.8
20260502113005 76 248 4.3 10.4 0.00 0.00 0.00 20 1023.8
20260502112505 76 259 3.5 9.6 0.00 0.00 0.00 20 1024.8
20260502112005 76 253 7.0 9.6 0.00 0.00 0.00 21 1024.8
20260502111505 76 233 3.5 9.6 0.00 0.00 0.00 20 1024.8
20260502111006 76 240 3.5 9.6 0.00 0.00 0.00 22 1024.8
20260502110505 76 248 4.3 10.4 0.00 0.00 0.00 22 1024.8
20260502110006 76 257 7.0 10.4 0.00 0.00 0.00 21 1024.8
20260502105505 76 251 4.3 9.6 0.00 0.00 0.00 22 1024.8
20260502105006 76 233 3.5 7.8 0.00 0.00 0.00 24 1024.8
20260502104005 76 236 4.3 8.7 0.00 0.00 0.00 23 1024.8
20260502103505 75 231 3.5 9.6 0.00 0.00 0.00 24 1024.8
20260502102505 75 247 3.5 7.8 0.00 0.00 0.00 25 1024.8
20260502102005 75 265 2.6 8.7 0.00 0.00 0.00 25 1024.8
20260502101504 75 243 4.3 8.7 0.00 0.00 0.00 26 1024.8
20260502101005 75 250 4.3 6.1 0.00 0.00 0.00 24 1024.8
20260502100505 74 255 1.7 7.0 0.00 0.00 0.00 26 1024.8
20260502091505 70 153 1.7 3.5 0.00 0.00 0.00 34 1025.8
20260502090506 69 27 1.7 2.6 0.00 0.00 0.00 37 1025.8
20260502071505 57 19 3.5 4.3 0.00 0.00 0.00 55 1027.8
20260502071005 56 74 1.7 3.5 0.00 0.00 0.00 56 1027.8
20260502070504 56 72 0.9 3.5 0.00 0.00 0.00 57 1027.8
20260502070005 55 147 1.7 3.5 0.00 0.00 0.00 58 1027.8
20260502065504 54 185 1.7 3.5 0.00 0.00 0.00 60 1027.8
20260502064505 53 251 1.7 2.6 0.00 0.00 0.00 63 1027.8
20260502064005 52 238 0.0 3.5 0.00 0.00 0.00 63 1027.8
20260502063504 52 288 1.7 4.3 0.00 0.00 0.00 64 1027.8
20260502063005 51 310 3.5 4.3 0.00 0.00 0.00 65 1027.8
20260502062505 51 332 0.9 2.6 0.00 0.00 0.00 65 1027.8
20260502061505 49 142 1.7 2.6 0.00 0.00 0.00 71 1027.8
20260502061005 49 176 0.0 2.6 0.00 0.00 0.00 72 1027.8
20260502060504 48 265 1.7 2.6 0.00 0.00 0.00 73 1027.8
20260502060005 48 358 1.7 2.6 0.00 0.00 0.00 74 1027.8
20260502055504 47 64 0.0 2.6 0.00 0.00 0.00 74 1027.8
20260502055005 46 115 1.7 2.6 0.00 0.00 0.00 76 1027.8
20260502054505 46 134 0.9 2.6 0.00 0.00 0.00 78 1027.8
20260502054005 45 114 0.9 2.6 0.00 0.00 0.00 79 1027.8
20260502053505 44 126 0.0 1.7 0.00 0.00 0.00 80 1027.8
20260502053005 44 134 0.9 1.7 0.00 0.00 0.00 80 1027.8
20260502052505 43 134 0.9 1.7 0.00 0.00 0.00 79 1027.8
20260502051505 42 143 1.7 1.7 0.00 0.00 0.00 79 1027.8
20260502050505 41 198 0.0 1.7 0.00 0.00 0.00 76 1026.8
20260502050005 41 0 0.0 0.0 0.00 0.00 0.00 76 1026.8
20260502045505 41 0 0.0 0.0 0.00 0.00 0.00 74 1027.8
20260502045005 41 0 0.0 0.0 0.00 0.00 0.00 75 1027.8
20260502044505 41 181 0.0 1.7 0.00 0.00 0.00 74 1027.8
20260502044005 41 181 0.0 1.7 0.00 0.00 0.00 74 1027.8
20260502043504 41 0 0.0 0.0 0.00 0.00 0.00 74 1027.8
20260502043005 41 207 0.0 1.7 0.00 0.00 0.00 73 1027.8
20260502042504 41 197 0.9 1.7 0.00 0.00 0.00 73 1027.8
20260502042004 41 85 0.9 1.7 0.00 0.00 0.00 73 1027.8
20260502041505 41 1 0.0 1.7 0.00 0.00 0.00 72 1027.8
20260502041004 41 0 0.0 0.0 0.00 0.00 0.00 72 1027.8
20260502040505 41 0 0.0 0.0 0.00 0.00 0.00 72 1027.8
20260502035505 41 0 0.0 0.0 0.00 0.00 0.00 72 1027.8
20260502035005 41 0 0.0 0.0 0.00 0.00 0.00 71 1027.8
20260502034505 41 0 0.0 0.0 0.00 0.00 0.00 72 1027.8
20260502034005 41 0 0.0 0.0 0.00 0.00 0.00 71 1027.8
20260502033504 41 314 0.0 1.7 0.00 0.00 0.00 72 1027.8
20260502033005 41 269 0.0 1.7 0.00 0.00 0.00 72 1027.8
20260502032505 41 264 0.9 1.7 0.00 0.00 0.00 71 1027.8
20260502032005 41 357 0.9 1.7 0.00 0.00 0.00 70 1027.8
20260502031505 41 7 0.0 1.7 0.00 0.00 0.00 70 1027.8
20260502031005 41 0 0.0 0.0 0.00 0.00 0.00 70 1027.8
20260502030505 41 292 0.0 1.7 0.00 0.00 0.00 70 1027.8
20260502025504 41 306 1.7 1.7 0.00 0.00 0.00 69 1026.8
20260502025005 41 302 0.9 1.7 0.00 0.00 0.00 68 1026.8
20260502024505 41 112 0.0 1.7 0.00 0.00 0.00 68 1026.8
20260502024005 41 112 0.9 1.7 0.00 0.00 0.00 70 1027.8
20260502023505 42 111 0.0 1.7 0.00 0.00 0.00 69 1027.8
20260502023004 42 111 0.0 1.7 0.00 0.00 0.00 69 1027.8
20260502022505 42 112 0.0 1.7 0.00 0.00 0.00 69 1027.8
20260502022005 42 0 0.0 0.0 0.00 0.00 0.00 69 1027.8
20260502021505 42 98 0.0 1.7 0.00 0.00 0.00 68 1027.8
20260502021004 42 89 0.0 1.7 0.00 0.00 0.00 69 1027.8
20260502020505 42 68 0.9 1.7 0.00 0.00 0.00 69 1027.8
20260502015004 42 0 0.0 0.0 0.00 0.00 0.00 68 1027.8
20260502014505 42 0 0.0 0.0 0.00 0.00 0.00 68 1027.8
20260502014004 42 0 0.0 0.0 0.00 0.00 0.00 69 1027.8
20260502013504 42 0 0.0 0.0 0.00 0.00 0.00 68 1027.8
20260502012505 42 0 0.0 0.0 0.00 0.00 0.00 66 1027.8
20260502012004 42 135 0.0 1.7 0.00 0.00 0.00 67 1027.8
20260502011505 42 135 0.0 1.7 0.00 0.00 0.00 67 1027.8
20260502011004 42 0 0.0 0.0 0.00 0.00 0.00 67 1027.8
20260502010505 42 0 0.0 0.0 0.00 0.00 0.00 65 1027.8
20260502010004 42 135 0.0 0.9 0.00 0.00 0.00 65 1027.8
20260502005505 42 135 0.0 1.7 0.00 0.00 0.00 65 1028.8
20260502005005 43 149 0.0 1.7 0.00 0.00 0.00 65 1028.8
20260502004505 43 154 0.9 1.7 0.00 0.00 0.00 65 1028.8
20260502004005 43 314 0.0 1.7 0.00 0.00 0.00 65 1028.8
20260502003505 43 314 0.0 1.7 0.00 0.00 0.00 63 1028.8
20260502003005 43 90 0.0 1.7 0.00 0.00 0.00 64 1028.8
20260502002504 43 90 0.9 1.7 0.00 0.00 0.00 64 1028.8
20260502002005 43 0 0.0 0.0 0.00 0.00 0.00 63 1028.8
20260502000505 43 107 0.9 1.7 0.00 0.00 0.00 63 1028.8
20260502000005 44 112 0.0 1.7 0.00 0.00 0.00 62 1028.8
20260501235505 44 46 0.0 1.7 0.00 0.00 0.00 62 1028.8
20260501235005 44 46 0.0 1.7 0.00 0.00 0.00 62 1028.8
20260501234505 44 71 0.0 1.7 0.00 0.00 0.00 61 1028.8
20260501234005 44 52 0.0 1.7 0.00 0.00 0.00 61 1028.8
20260501233504 44 76 0.0 1.7 0.00 0.00 0.00 61 1028.8
20260501233005 44 125 0.0 1.7 0.00 0.00 0.00 60 1028.8
20260501232505 44 110 1.7 3.5 0.00 0.00 0.00 61 1027.8